This is the latest recevied weather packets stored in our database for station/object N5PUP-13. If no packets are shown the sender has not sent any weather packets the latest 10 day(s).
| Time | Temp. | Humidity | Pressure | Rain* | Wind** | Luminosity | Snow |
|---|---|---|---|---|---|---|---|
| 1787717100 | 27.78° C | 67% | 1017.8 hPa | 0 mm | - | - | - |
| 1787716800 | 27.78° C | 66% | 1017.7 hPa | 0 mm | - | - | - |
| 1787716500 | 27.78° C | 66% | 1017.7 hPa | 0 mm | - | - | - |
| 1787716200 | 27.78° C | 65% | 1017.6 hPa | 0 mm | - | - | - |
| 1787715900 | 27.78° C | 64% | 1017.4 hPa | 0 mm | - | - | - |
| 1787715600 | 27.78° C | 64% | 1017.2 hPa | 0 mm | - | - | - |
| 1787715300 | 27.78° C | 64% | 1017.2 hPa | 0 mm | - | - | - |
| 1787715000 | 27.78° C | 63% | 1017.2 hPa | 0 mm | - | - | - |
| 1787714700 | 28.33° C | 62% | 1017.1 hPa | 0 mm | - | - | - |
| 1787714400 | 28.33° C | 61% | 1017.1 hPa | 0 mm | - | - | - |
| 1787714100 | 28.33° C | 62% | 1017.2 hPa | 0 mm | - | - | - |
| 1787713800 | 27.78° C | 64% | 1017.1 hPa | 0 mm | - | - | - |
| 1787713500 | 27.78° C | 67% | 1017.2 hPa | 0 mm | - | - | - |
| 1787713200 | 27.78° C | 66% | 1017.2 hPa | 0 mm | - | - | - |
| 1787712900 | 27.78° C | 65% | 1017 hPa | 0 mm | - | - | - |
| 1787712600 | 28.33° C | 64% | 1016.8 hPa | 0 mm | - | - | - |
| 1787712300 | 28.33° C | 63% | 1016.8 hPa | 0 mm | - | - | - |
| 1787712000 | 28.89° C | 61% | 1016.8 hPa | 0 mm | - | - | - |
| 1787711700 | 29.44° C | 60% | 1016.7 hPa | 0 mm | - | - | - |
| 1787711400 | 29.44° C | 59% | 1016.5 hPa | 0 mm | - | - | - |
| 1787711100 | 29.44° C | 59% | 1016.3 hPa | 0 mm | - | - | - |
| 1787710800 | 29.44° C | 58% | 1016.1 hPa | 0 mm | - | - | - |
| 1787710500 | 29.44° C | 58% | 1015.9 hPa | 0 mm | - | - | - |
| 1787710200 | 29.44° C | 57% | 1015.8 hPa | 0 mm | - | - | - |
| 1787709900 | 29.44° C | 58% | 1015.8 hPa | 0 mm | - | - | - |
* Rain latest hour (hover to see other rain measurements)
** Current wind speed in m/s (hover to see current wind gust speed)